Temp
72 72 72 72 72 72 74 75 74 75 75 75 74 75 75 75 75 75 75 75 73 72 71 72 72 72 74 73 74 75 75 75 74 74 74 74 74 74 74 74 73 73 73 73 72 73 73 73 73 73 74 74 73 68 68 68 68 67 66 67 68 70
72 71 71 72 72 73 73 74 72 73 73 73 74 75 74 73 75 72 75 72 70 71 69 70 71 74 71 73 73 75 75 74 74 74 74 74 74 74 74 73 73 73 73 72 73 65 66 70 74 73 73 73 69 67 67 67 67 67 67 66 67 72
71 71 71 71 72 72 72 71 71 72 73 73 73 73 72 73 71 72 71 70 70 69 69 70 70 72 71 74 73 75 75 74 74 74 73 74 74 74 73 74 74 73 72 72 66 64 66 66 67 74 73 71 68 67 67 67 66 66 66 66 66 74
71 70 70 70 71 71 70 70 70 71 71 71 71 72 72 71 71 71 70 69 69 70 69 69 74 75 74 71 72 75 75 74 74 73 74 72 74 73 74 74 73 73 70 68 64 65 67 66 65 66 66 67 67 68 67 67 66 66 67 69 69 74
70 70 70 70 70 70 70 70 70 70 70 70 70 70 70 70 70 70 69 69 69 70 69 69 69 69 68 69 68 69 70 69 67 66 70 64 64 68 66 65 66 67 63 65 66 65 66 66 65 65 65 66 67 67 67 67 67 66 67 68 69 74
70 69 69 69 69 70 70 69 69 69 69 69 69 68 68 69 69 69 69 69 69 68 68 68 68 68 68 68 68 67 67 67 66 65 67 64 63 63 63 64 64 64 64 64 65 66 67 66 64 64 64 65 66 66 66 65 66 66 66 67 71 74
69 69 69 69 69 70 69 69 69 69 68 68 67 67 67 68 68 69 69 69 68 67 67 67 67 67 67 68 67 67 67 66 66 65 65 65 63 63 63 63 63 63 64 65 66 66 66 66 64 65 65 66 65 65 65 64 65 65 65 67 71 74
69 69 69 69 69 69 68 68 69 70 69 68 67 67 67 68 69 68 69 69 69 68 67 67 67 67 67 68 67 68 67 65 65 65 66 66 64 63 63 63 63 64 65 66 67 67 67 67 64 65 66 65 65 65 65 64 65 65 65 67 69 72
69 69 69 69 68 68 67 68 69 68 67 70 66 67 67 68 68 68 69 69 69 67 67 67 66 66 67 67 67 67 66 65 65 65 65 64 64 63 63 63 64 65 64 64 64 66 66 65 64 65 65 65 65 65 65 64 64 64 65 66 67 70
69 69 69 68 68 67 67 67 67 67 67 68 65 66 67 68 67 67 67 68 68 68 67 67 66 66 66 66 66 66 66 65 65 65 64 64 64 64 64 63 64 65 66 64 65 66 65 64 66 65 65 65 65 65 64 64 64 64 65 65 67 69
69 69 68 68 67 67 67 67 66 66 67 66 65 66 66 67 67 67 67 68 68 68 68 67 66 66 65 65 64 65 65 64 65 65 65 65 65 65 65 65 65 64 64 64 64 64 64 64 64 65 65 65 65 65 65 65 64 65 65 65 65 66
69 69 68 68 68 67 66 66 66 66 66 66 66 65 66 67 67 67 67 67 67 67 68 67 66 66 65 65 64 64 64 64 63 64 66 66 66 66 67 66 66 65 64 64 64 64 64 63 63 64 65 65 65 65 65 65 65 65 65 65 65 65
69 69 68 68 68 67 67 67 66 66 66 67 66 66 66 66 67 67 67 67 67 68 67 66 66 66 66 65 65 64 64 65 64 65 66 66 68 66 65 65 65 65 64 64 64 64 65 63 63 63 64 64 65 65 65 65 65 65 64 64 63 63
69 68 68 68 67 66 67 67 66 66 66 66 65 66 66 66 67 67 67 67 67 67 67 66 66 66 65 65 65 65 64 64 65 65 66 66 66 66 65 65 65 65 66 64 63 63 63 63 63 63 64 64 64 64 65 65 64 64 64 64 63 63
68 68 69 67 67 67 67 66 66 66 66 65 66 65 66 67 67 67 67 67 67 67 67 66 67 66 65 65 65 64 65 64 65 65 65 64 64 64 65 65 64 63 62 63 63 63 63 62 63 63 64 64 64 65 65 64 64 64 64 62 64 63
67 67 66 66 66 66 67 67 66 67 66 66 66 66 66 67 67 67 67 66 66 67 66 67 66 66 65 65 64 64 64 65 66 65 65 64 65 64 64 64 64 64 62 62 63 62 63 62 63 63 64 64 64 65 64 64 64 64 63 63 63 62
67 65 65 66 66 66 66 67 67 67 67 66 66 66 66 67 66 66 66 66 66 67 66 66 67 66 65 65 64 65 65 65 66 65 64 64 63 64 64 64 63 64 64 62 62 62 62 62 63 63 64 65 65 64 64 64 63 63 63 63 62 63
65 66 65 65 66 66 67 67 67 66 67 67 66 66 67 67 66 66 66 66 66 67 66 66 66 66 65 65 65 65 65 65 65 64 63 64 64 64 64 64 63 63 63 63 62 62 62 62 63 63 64 64 64 64 64 64 64 64 62 62 62 63
65 66 65 66 66 67 67 66 65 66 66 67 67 66 66 66 65 66 65 66 67 66 66 66 66 66 65 65 64 64 64 64 64 63 63 63 63 64 64 64 64 64 64 63 62 62 62 63 62 63 63 63 64 64 63 63 63 62 62 62 64 65
64 66 65 66 66 65 66 66 65 66 66 66 66 66 66 65 65 65 66 66 66 65 66 66 66 66 65 65 64 64 64 65 64 63 62 63 62 63 64 64 64 64 62 63 62 63 63 63 62 62 62 63 64 64 63 62 61 62 63 64 64 63
65 65 65 65 65 65 65 65 66 66 66 65 65 65 65 65 65 65 66 66 66 65 66 66 66 66 65 66 65 64 64 64 64 63 63 63 63 64 65 64 63 64 62 61 61 63 63 65 63 61 62 62 62 64 64 63 63 62 62 63 63 63
66 65 65 65 65 65 66 67 66 66 66 65 65 65 65 65 65 66 66 66 66 65 65 66 66 65 66 65 64 64 64 64 63 63 63 63 64 65 65 64 64 62 63 62 60 62 64 65 61 60 59 59 60 62 63 63 63 63 63 63 63 63
64 64 64 65 65 64 65 67 67 66 67 65 65 66 66 65 65 65 64 65 65 65 65 65 65 65 65 65 64 64 64 63 63 64 63 63 64 64 64 65 65 63 61 61 61 63 63 62 59 59 61 60 57 57 59 61 62 63 63 63 63 63
65 65 65 65 65 66 66 66 66 65 66 65 64 65 66 65 65 65 64 64 64 64 65 65 65 66 65 64 64 64 64 63 63 64 64 63 64 63 64 64 64 64 63 60 61 62 64 61 63 61 56 55 56 57 55 57 58 61 63 63 63 62
64 65 65 65 65 65 66 66 65 65 65 64 65 65 65 65 65 65 65 64 64 64 65 65 65 65 65 64 65 64 64 64 64 65 65 65 64 65 65 65 65 64 63 62 60 61 63 62 63 63 59 56 55 54 54 57 59 59 62 61 62 62
64 65 65 65 66 66 66 65 64 63 63 63 63 63 63 63 63 64 64 64 64 65 65 65 65 65 66 65 64 64 65 65 65 65 65 65 65 65 65 65 65 65 63 64 63 61 60 62 64 62 61 59 60 55 55 58 58 54 60 61 62 62
64 64 66 65 66 66 65 65 65 65 65 64 63 64 66 66 64 64 64 63 64 64 65 65 65 65 65 65 65 65 65 66 66 65 66 65 65 65 66 66 66 65 64 64 64 61 61 61 62 62 62 60 60 59 62 58 55 58 55 59 61 61
65 65 66 66 65 66 65 65 64 64 64 64 64 64 65 64 63 64 63 63 64 63 64 65 65 65 65 66 66 65 65 66 66 66 66 66 65 65 66 67 66 66 65 65 65 63 61 62 60 60 60 59 60 61 62 58 61 60 58 55 57 61
64 65 64 65 65 65 66 65 65 64 63 64 65 64 64 64 63 63 62 62 63 64 64 65 66 66 66 67 67 66 66 66 66 66 67 66 66 66 66 65 65 64 64 64 64 64 63 62 61 60 58 57 60 59 58 59 60 59 59 57 56 57
63 63 64 65 65 65 66 65 64 64 63 62 63 62 63 63 62 62 62 62 62 62 64 64 65 66 67 68 67 66 67 66 66 66 66 66 66 65 65 65 65 65 64 64 62 63 63 62 62 61 61 60 59 57 58 57 56 58 59 59 57 57
63 62 63 63 64 64 64 64 63 63 62 62 62 62 62 61 61 60 61 62 62 63 64 64 64 66 67 67 67 67 67 66 66 67 66 66 65 65 65 66 65 64 64 64 62 63 62 62 61 61 60 61 61 61 59 57 57 58 58 56 57 57
62 62 63 63 64 64 65 65 65 64 62 62 63 62 62 61 61 61 61 61 61 62 63 64 64 65 65 66 66 66 66 65 65 65 65 66 65 65 65 65 64 64 64 63 63 63 62 61 61 61 61 61 61 60 59 60 60 59 58 58 59 56
62 62 63 63 63 63 64 65 65 64 63 63 62 63 62 61 61 61 61 61 61 61 62 63 63 65 64 65 65 65 64 64 64 65 64 64 65 65 65 65 65 64 63 63 63 63 62 62 62 61 61 60 60 60 60 61 61 59 59 60 59 56
61 63 63 63 64 64 64 65 65 63 63 63 62 63 62 62 62 62 62 62 62 62 62 63 63 64 64 65 64 65 65 65 65 64 64 64 65 65 65 65 65 64 63 63 63 62 62 62 62 62 62 60 60 61 59 61 61 61 60 59 57 57
62 63 63 63 64 64 64 65 64 63 63 63 62 62 62 63 62 62 62 63 63 63 63 63 64 64 64 65 64 64 64 64 64 64 64 64 65 65 65 65 65 64 64 63 63 62 61 62 63 61 60 61 61 60 60 61 62 62 62 61 60 59
62 62 63 63 63 63 64 64 64 63 63 63 62 62 62 62 62 62 62 63 64 64 64 63 64 64 63 65 64 64 64 64 65 64 63 64 64 64 64 64 63 63 63 65 63 63 62 62 62 61 61 60 61 61 61 61 62 62 63 62 61 61
61 62 62 63 63 63 64 64 63 64 63 62 62 62 62 62 62 62 63 64 64 65 65 64 65 64 64 64 65 65 65 64 64 64 63 63 63 63 63 64 63 62 63 63 63 63 62 62 62 61 60 60 61 61 61 61 62 63 63 62 62 62
MSLP
1013.44 1013.64 1013.80 1013.96 1014.16 1014.32 1014.40 1014.48 1014.60 1014.68 1014.80 1015.00 1015.20 1015.36 1015.60 1015.80 1016.00 1016.08 1016.16 1016.28 1016.44 1016.64 1016.80 1016.96 1017.16 1017.40 1017.52 1017.68 1017.84 1017.96 1018.12 1018.24 1018.32 1018.40 1018.44 1018.44 1018.52 1018.56 1018.60 1018.60 1018.64 1018.64 1018.68 1018.68 1018.76 1018.84 1018.96 1019.12 1019.12 1019.16 1019.24 1019.40 1019.60 1019.88 1019.96 1020.04 1020.12 1020.12 1020.12 1020.08 1020.12 1020.12
1013.64 1013.80 1013.88 1014.04 1014.20 1014.24 1014.32 1014.40 1014.52 1014.68 1014.88 1015.08 1015.24 1015.40 1015.68 1015.88 1016.08 1016.20 1016.32 1016.48 1016.64 1016.72 1016.88 1017.00 1017.16 1017.36 1017.60 1017.68 1017.80 1017.96 1018.08 1018.20 1018.32 1018.44 1018.48 1018.52 1018.56 1018.64 1018.68 1018.68 1018.64 1018.68 1018.72 1018.80 1018.84 1018.96 1019.24 1019.28 1019.08 1019.04 1019.20 1019.44 1019.72 1019.92 1020.08 1020.16 1020.24 1020.24 1020.24 1020.20 1020.16 1020.12
1013.72 1013.80 1013.96 1014.08 1014.20 1014.24 1014.32 1014.48 1014.60 1014.72 1014.88 1015.08 1015.20 1015.44 1015.68 1015.92 1016.08 1016.24 1016.40 1016.56 1016.68 1016.80 1016.92 1017.04 1017.16 1017.36 1017.52 1017.68 1017.84 1017.92 1018.08 1018.20 1018.32 1018.40 1018.52 1018.56 1018.64 1018.72 1018.76 1018.76 1018.68 1018.68 1018.76 1018.84 1018.92 1019.12 1019.32 1019.32 1019.24 1019.20 1019.28 1019.56 1019.88 1020.12 1020.28 1020.40 1020.40 1020.40 1020.44 1020.36 1020.32 1020.20
1013.72 1013.88 1014.04 1014.16 1014.20 1014.24 1014.32 1014.44 1014.60 1014.76 1014.92 1015.12 1015.28 1015.48 1015.60 1015.76 1015.96 1016.16 1016.40 1016.56 1016.68 1016.80 1016.92 1017.08 1017.12 1017.24 1017.48 1017.72 1017.84 1017.92 1018.04 1018.20 1018.32 1018.40 1018.52 1018.60 1018.68 1018.76 1018.84 1018.84 1018.80 1018.76 1018.84 1018.96 1019.04 1019.20 1019.32 1019.40 1019.44 1019.56 1019.72 1019.88 1020.04 1020.20 1020.40 1020.52 1020.52 1020.52 1020.48 1020.48 1020.48 1020.36
1013.72 1013.92 1014.08 1014.16 1014.24 1014.32 1014.36 1014.48 1014.64 1014.84 1015.00 1015.16 1015.36 1015.52 1015.68 1015.84 1016.00 1016.16 1016.40 1016.52 1016.60 1016.76 1017.00 1017.12 1017.24 1017.40 1017.60 1017.76 1017.92 1018.04 1018.12 1018.28 1018.36 1018.52 1018.52 1018.72 1018.80 1018.88 1018.92 1019.04 1019.00 1019.00 1019.08 1019.12 1019.08 1019.20 1019.28 1019.52 1019.60 1019.72 1019.92 1020.00 1020.12 1020.24 1020.40 1020.52 1020.56 1020.56 1020.48 1020.44 1020.52 1020.56
1013.84 1014.00 1014.12 1014.20 1014.28 1014.36 1014.44 1014.68 1014.88 1015.00 1015.12 1015.28 1015.44 1015.64 1015.76 1015.92 1016.16 1016.20 1016.32 1016.48 1016.56 1016.84 1017.08 1017.24 1017.32 1017.48 1017.64 1017.80 1018.00 1018.16 1018.24 1018.32 1018.44 1018.56 1018.56 1018.76 1018.84 1018.92 1019.00 1019.08 1019.16 1019.20 1019.28 1019.28 1019.24 1019.32 1019.36 1019.48 1019.80 1019.80 1020.00 1020.12 1020.20 1020.36 1020.48 1020.56 1020.60 1020.60 1020.60 1020.56 1020.56 1020.64
1013.76 1013.92 1014.08 1014.08 1014.24 1014.36 1014.56 1014.72 1014.88 1014.96 1015.16 1015.40 1015.48 1015.72 1015.92 1016.00 1016.16 1016.24 1016.28 1016.36 1016.68 1016.92 1017.16 1017.28 1017.36 1017.52 1017.76 1017.84 1018.08 1018.20 1018.32 1018.36 1018.48 1018.56 1018.60 1018.72 1018.88 1018.92 1018.96 1019.04 1019.20 1019.28 1019.36 1019.40 1019.36 1019.40 1019.36 1019.44 1019.88 1019.96 1020.12 1020.24 1020.36 1020.48 1020.60 1020.72 1020.76 1020.80 1020.76 1020.72 1020.68 1020.72
1013.52 1013.72 1013.96 1014.08 1014.28 1014.48 1014.64 1014.84 1014.88 1014.96 1015.20 1015.40 1015.64 1015.84 1015.96 1016.08 1016.20 1016.32 1016.36 1016.44 1016.52 1016.76 1017.08 1017.32 1017.36 1017.52 1017.68 1017.84 1018.04 1018.16 1018.28 1018.40 1018.48 1018.56 1018.56 1018.68 1018.92 1019.04 1019.04 1019.12 1019.20 1019.36 1019.40 1019.36 1019.52 1019.40 1019.36 1019.68 1019.96 1019.92 1020.08 1020.32 1020.48 1020.60 1020.68 1020.76 1020.84 1020.84 1020.84 1020.80 1020.76 1020.84
1013.56 1013.72 1013.92 1014.08 1014.40 1014.52 1014.68 1014.84 1014.92 1015.04 1015.32 1015.44 1015.72 1015.84 1015.92 1016.08 1016.24 1016.32 1016.44 1016.56 1016.56 1016.80 1017.00 1017.20 1017.36 1017.44 1017.56 1017.84 1018.00 1018.12 1018.24 1018.44 1018.48 1018.60 1018.60 1018.76 1018.88 1019.08 1019.16 1019.20 1019.32 1019.40 1019.60 1019.48 1019.40 1019.40 1019.40 1019.76 1020.00 1019.88 1020.12 1020.36 1020.48 1020.64 1020.76 1020.84 1020.92 1021.00 1021.00 1020.96 1020.96 1020.96
1013.68 1013.76 1013.88 1014.00 1014.28 1014.52 1014.68 1014.92 1015.04 1015.20 1015.40 1015.60 1015.88 1015.96 1016.00 1016.16 1016.24 1016.36 1016.56 1016.60 1016.56 1016.64 1016.92 1017.12 1017.24 1017.32 1017.48 1017.76 1017.92 1018.08 1018.20 1018.40 1018.56 1018.60 1018.68 1018.84 1018.92 1019.08 1019.20 1019.28 1019.40 1019.56 1019.52 1019.52 1019.52 1019.56 1019.60 1019.76 1019.92 1020.00 1020.08 1020.32 1020.52 1020.64 1020.80 1020.92 1021.04 1021.12 1021.08 1021.04 1021.04 1021.08
1013.52 1013.68 1013.92 1014.16 1014.36 1014.52 1014.76 1014.96 1015.12 1015.20 1015.40 1015.68 1015.96 1016.12 1016.20 1016.28 1016.40 1016.52 1016.60 1016.64 1016.68 1016.68 1016.84 1016.96 1017.04 1017.20 1017.40 1017.64 1017.88 1018.04 1018.16 1018.28 1018.44 1018.56 1018.68 1018.80 1018.92 1019.12 1019.28 1019.40 1019.52 1019.64 1019.68 1019.68 1019.76 1019.72 1019.76 1019.84 1020.08 1020.16 1020.20 1020.32 1020.56 1020.72 1020.88 1021.00 1021.12 1021.20 1021.20 1021.20 1021.20 1021.24
1013.60 1013.68 1013.84 1014.12 1014.28 1014.60 1014.92 1015.16 1015.32 1015.36 1015.52 1015.72 1015.96 1016.12 1016.24 1016.40 1016.52 1016.60 1016.64 1016.72 1016.80 1016.88 1016.88 1016.88 1016.92 1017.12 1017.36 1017.64 1017.80 1018.00 1018.16 1018.28 1018.40 1018.52 1018.60 1018.80 1018.96 1019.28 1019.52 1019.44 1019.60 1019.72 1019.64 1019.64 1019.76 1019.76 1019.88 1020.08 1020.28 1020.36 1020.28 1020.48 1020.64 1020.84 1021.00 1021.08 1021.20 1021.24 1021.32 1021.36 1021.40 1021.40
1013.92 1013.92 1014.00 1014.16 1014.28 1014.56 1014.88 1015.16 1015.44 1015.52 1015.60 1015.72 1015.92 1016.04 1016.20 1016.36 1016.52 1016.56 1016.64 1016.72 1016.88 1016.96 1016.92 1016.88 1016.88 1017.00 1017.32 1017.56 1017.72 1017.92 1018.08 1018.12 1018.20 1018.36 1018.56 1018.84 1019.48 1019.84 1019.52 1019.52 1019.80 1019.68 1019.56 1019.76 1019.80 1019.88 1019.96 1020.20 1020.40 1020.48 1020.48 1020.68 1020.76 1020.92 1021.00 1021.12 1021.24 1021.32 1021.44 1021.52 1021.56 1021.56
1014.72 1014.28 1014.28 1014.36 1014.52 1014.72 1014.92 1015.20 1015.44 1015.60 1015.64 1015.72 1015.88 1016.00 1016.12 1016.28 1016.40 1016.56 1016.68 1016.76 1016.80 1016.88 1016.92 1016.84 1016.88 1017.08 1017.20 1017.48 1017.64 1017.76 1017.88 1018.00 1018.04 1018.20 1018.56 1018.84 1019.56 1019.76 1019.32 1019.36 1020.12 1019.72 1019.68 1019.84 1020.00 1020.12 1020.20 1020.40 1020.52 1020.52 1020.60 1020.68 1020.80 1020.96 1021.04 1021.24 1021.36 1021.44 1021.56 1021.72 1021.72 1021.76
1015.32 1015.08 1014.64 1014.76 1014.88 1015.04 1015.16 1015.36 1015.52 1015.68 1015.68 1015.72 1015.88 1016.04 1016.12 1016.24 1016.36 1016.52 1016.72 1016.76 1016.76 1016.84 1016.88 1016.84 1016.88 1017.04 1017.24 1017.32 1017.52 1017.72 1017.76 1017.88 1017.96 1018.20 1018.56 1019.00 1019.68 1019.60 1019.12 1019.12 1019.96 1019.92 1020.04 1020.08 1020.12 1020.28 1020.36 1020.60 1020.68 1020.68 1020.72 1020.76 1020.92 1021.04 1021.16 1021.36 1021.44 1021.64 1021.76 1021.88 1021.88 1021.92
1015.00 1015.36 1015.56 1015.72 1015.80 1015.72 1015.52 1015.36 1015.44 1015.52 1015.64 1015.72 1015.92 1016.12 1016.24 1016.28 1016.32 1016.48 1016.64 1016.76 1016.76 1016.80 1016.84 1016.84 1016.92 1016.96 1017.12 1017.24 1017.44 1017.68 1017.72 1017.80 1017.96 1018.24 1018.60 1019.12 1019.44 1019.60 1019.40 1019.36 1019.64 1019.88 1020.20 1020.36 1020.28 1020.48 1020.52 1020.72 1020.72 1020.76 1020.84 1020.88 1021.00 1021.08 1021.28 1021.44 1021.60 1021.76 1021.92 1021.96 1022.08 1022.08
1015.32 1015.56 1015.56 1015.64 1015.76 1016.12 1015.76 1015.36 1015.28 1015.32 1015.44 1015.64 1015.92 1016.16 1016.24 1016.28 1016.32 1016.44 1016.64 1016.76 1016.80 1016.80 1016.84 1016.84 1016.88 1016.92 1017.00 1017.28 1017.48 1017.60 1017.72 1017.76 1018.00 1018.32 1018.64 1019.00 1019.44 1019.48 1019.56 1019.52 1019.64 1019.96 1019.80 1020.16 1020.40 1020.60 1020.72 1020.76 1020.88 1020.92 1020.92 1021.00 1021.08 1021.20 1021.40 1021.56 1021.68 1021.84 1021.96 1022.16 1022.20 1022.20
1015.12 1015.04 1015.28 1015.32 1015.44 1015.40 1015.32 1015.28 1015.32 1015.44 1015.56 1015.68 1015.84 1015.96 1016.08 1016.16 1016.28 1016.44 1016.60 1016.76 1016.72 1016.76 1016.80 1016.88 1016.92 1016.92 1017.08 1017.28 1017.44 1017.60 1017.72 1017.80 1018.04 1018.40 1018.72 1018.92 1019.28 1019.24 1019.40 1019.24 1019.60 1019.92 1019.96 1020.04 1020.48 1020.68 1020.80 1020.88 1020.92 1021.08 1021.12 1021.20 1021.28 1021.36 1021.52 1021.64 1021.72 1021.88 1022.08 1022.24 1022.24 1022.32
1015.16 1015.28 1015.36 1015.56 1015.24 1014.84 1014.96 1015.32 1015.52 1015.68 1015.80 1015.80 1015.80 1015.88 1015.96 1016.12 1016.20 1016.40 1016.56 1016.60 1016.64 1016.72 1016.84 1016.92 1016.96 1017.00 1017.16 1017.40 1017.60 1017.72 1017.80 1017.88 1018.08 1018.40 1018.68 1018.92 1019.16 1019.20 1019.24 1019.32 1019.64 1019.92 1020.12 1020.12 1020.32 1020.60 1020.72 1020.88 1021.16 1021.24 1021.36 1021.44 1021.44 1021.56 1021.64 1021.72 1021.84 1022.00 1022.12 1022.20 1022.28 1022.36
1015.16 1015.44 1015.48 1015.40 1015.04 1015.24 1015.36 1015.56 1015.84 1015.92 1015.96 1015.92 1015.88 1015.92 1015.96 1016.00 1016.12 1016.32 1016.44 1016.56 1016.60 1016.72 1016.84 1016.96 1017.00 1017.08 1017.20 1017.44 1017.60 1017.76 1017.80 1017.88 1018.12 1018.32 1018.60 1018.92 1019.04 1019.12 1019.24 1019.68 1019.92 1020.08 1020.44 1020.52 1020.64 1020.72 1020.76 1020.88 1021.24 1021.44 1021.60 1021.56 1021.60 1021.68 1021.80 1021.84 1021.96 1022.16 1022.16 1022.24 1022.32 1022.40
1014.48 1014.92 1015.24 1015.32 1015.28 1015.56 1015.68 1015.68 1015.76 1015.76 1015.84 1015.84 1015.88 1015.88 1015.96 1016.00 1016.08 1016.12 1016.24 1016.44 1016.56 1016.68 1016.84 1016.96 1017.00 1017.08 1017.28 1017.44 1017.60 1017.64 1017.76 1017.96 1018.16 1018.36 1018.56 1018.76 1018.72 1018.92 1019.16 1019.76 1020.32 1020.40 1020.44 1020.88 1021.16 1020.96 1020.88 1020.72 1021.20 1021.76 1021.84 1021.92 1021.92 1021.84 1021.88 1021.96 1022.08 1022.32 1022.36 1022.36 1022.36 1022.52
1014.48 1014.56 1014.84 1014.96 1015.60 1015.64 1015.36 1015.12 1015.08 1015.28 1015.48 1015.64 1015.80 1015.84 1015.96 1015.96 1016.00 1016.08 1016.20 1016.40 1016.56 1016.68 1016.76 1016.92 1017.00 1017.12 1017.28 1017.52 1017.72 1017.72 1017.88 1018.08 1018.28 1018.44 1018.52 1018.52 1018.64 1018.84 1019.24 1019.80 1019.96 1020.44 1020.36 1020.60 1021.12 1021.00 1020.88 1020.76 1021.64 1021.76 1022.12 1022.32 1022.36 1022.28 1022.16 1022.20 1022.28 1022.40 1022.44 1022.52 1022.48 1022.60
1014.68 1014.92 1014.76 1015.24 1015.44 1015.52 1015.20 1015.04 1014.96 1015.00 1015.12 1015.48 1015.44 1015.56 1015.76 1015.96 1016.08 1016.24 1016.36 1016.48 1016.60 1016.68 1016.76 1016.96 1017.04 1017.16 1017.36 1017.56 1017.68 1017.84 1018.00 1018.12 1018.32 1018.32 1018.40 1018.48 1018.72 1019.08 1019.32 1019.64 1019.84 1020.04 1020.68 1020.76 1021.00 1021.00 1020.88 1020.64 1021.40 1021.76 1021.88 1022.24 1022.76 1022.92 1022.64 1022.52 1022.48 1022.52 1022.52 1022.60 1022.64 1022.68
1012.96 1013.72 1014.76 1015.28 1015.16 1014.96 1015.04 1014.88 1014.84 1014.88 1015.04 1015.24 1015.52 1015.60 1015.76 1015.96 1016.20 1016.36 1016.56 1016.56 1016.64 1016.76 1016.84 1016.96 1017.08 1017.20 1017.32 1017.48 1017.68 1017.88 1018.00 1018.08 1018.16 1018.16 1018.24 1018.52 1018.76 1019.16 1019.28 1019.48 1019.92 1020.04 1020.16 1021.04 1021.20 1021.28 1020.84 1020.72 1020.72 1021.36 1022.68 1022.60 1022.72 1022.76 1023.12 1023.12 1023.04 1022.84 1022.64 1022.68 1022.72 1022.84
1012.32 1012.12 1013.00 1013.20 1013.72 1014.52 1014.88 1014.88 1014.88 1015.00 1015.08 1015.28 1015.44 1015.68 1015.92 1016.16 1016.24 1016.40 1016.56 1016.68 1016.76 1016.76 1016.88 1016.96 1017.04 1017.20 1017.28 1017.48 1017.64 1017.76 1017.92 1018.00 1017.92 1017.96 1018.20 1018.40 1018.64 1018.84 1019.04 1019.20 1019.60 1019.88 1020.16 1020.40 1021.12 1021.08 1020.96 1020.72 1020.68 1020.40 1021.00 1022.24 1023.00 1023.16 1023.08 1022.96 1023.00 1023.24 1022.88 1022.96 1022.88 1022.92
1011.84 1011.96 1012.20 1012.60 1012.48 1012.88 1013.44 1013.92 1014.52 1015.00 1015.40 1015.56 1015.80 1015.76 1015.92 1016.08 1016.28 1016.48 1016.56 1016.60 1016.72 1016.80 1016.92 1017.00 1017.04 1017.12 1017.16 1017.36 1017.52 1017.64 1017.80 1017.88 1017.80 1017.92 1018.16 1018.32 1018.36 1018.60 1018.88 1019.16 1019.32 1019.52 1019.96 1020.04 1020.28 1020.92 1021.12 1020.80 1020.56 1020.44 1020.40 1020.36 1020.68 1021.52 1022.60 1022.76 1022.76 1023.68 1023.12 1022.96 1023.00 1023.00
1011.64 1011.48 1011.88 1012.44 1012.92 1013.20 1013.56 1013.72 1013.84 1014.12 1014.44 1014.80 1015.24 1015.40 1015.36 1015.60 1015.96 1016.20 1016.32 1016.60 1016.76 1016.88 1016.92 1017.04 1017.12 1017.12 1017.12 1017.16 1017.36 1017.52 1017.72 1017.72 1017.72 1018.00 1018.16 1018.24 1018.44 1018.56 1018.64 1018.88 1019.16 1019.44 1019.64 1019.92 1020.16 1020.76 1020.96 1021.00 1020.88 1020.64 1020.44 1020.40 1020.56 1020.56 1021.04 1022.08 1022.96 1023.12 1023.52 1023.36 1023.16 1023.20
1012.20 1011.44 1011.28 1011.76 1012.44 1012.88 1013.36 1013.64 1013.88 1014.08 1014.24 1014.60 1014.80 1015.12 1015.24 1015.56 1015.80 1016.04 1016.28 1016.48 1016.68 1016.84 1016.92 1017.00 1017.12 1017.16 1017.12 1017.12 1017.28 1017.52 1017.60 1017.68 1017.84 1018.04 1017.96 1018.08 1018.32 1018.44 1018.56 1018.76 1018.96 1019.16 1019.48 1019.64 1019.84 1020.28 1020.72 1020.76 1020.96 1020.76 1020.52 1020.52 1020.64 1020.68 1020.96 1021.16 1021.40 1021.76 1022.48 1023.32 1023.52 1023.24
1012.36 1011.76 1011.32 1011.24 1011.84 1012.60 1013.00 1013.32 1013.60 1013.84 1014.28 1014.40 1014.64 1015.00 1015.24 1015.52 1015.80 1016.00 1016.28 1016.44 1016.60 1016.72 1016.88 1016.96 1017.00 1017.08 1017.08 1017.12 1017.24 1017.40 1017.48 1017.68 1017.84 1017.92 1017.92 1018.08 1018.24 1018.40 1018.64 1018.84 1019.08 1019.32 1019.52 1019.64 1019.68 1019.88 1020.28 1020.60 1020.64 1020.60 1020.68 1020.84 1020.84 1021.08 1021.16 1021.24 1021.48 1021.60 1022.20 1023.08 1023.52 1023.52
1012.48 1012.28 1012.28 1012.00 1011.80 1012.20 1012.84 1013.44 1013.88 1014.16 1014.52 1014.92 1015.12 1015.44 1015.56 1015.80 1015.96 1016.04 1016.20 1016.40 1016.44 1016.56 1016.72 1016.84 1016.88 1016.92 1017.04 1017.04 1017.16 1017.28 1017.40 1017.60 1017.72 1017.80 1017.96 1018.12 1018.24 1018.48 1018.68 1018.80 1018.88 1019.08 1019.24 1019.56 1019.72 1019.84 1020.04 1020.24 1020.32 1020.36 1020.28 1020.52 1020.96 1021.36 1021.52 1021.76 1021.84 1021.92 1022.16 1022.28 1022.88 1023.32
1013.24 1013.56 1013.84 1014.00 1013.76 1013.44 1013.52 1013.96 1014.48 1014.76 1014.96 1015.20 1015.40 1015.64 1015.96 1016.20 1016.24 1016.32 1016.32 1016.40 1016.44 1016.44 1016.48 1016.60 1016.72 1016.80 1016.84 1016.96 1017.08 1017.20 1017.36 1017.48 1017.60 1017.76 1017.96 1018.12 1018.28 1018.44 1018.64 1018.72 1018.80 1019.00 1019.20 1019.44 1019.76 1019.92 1020.04 1020.16 1020.24 1020.28 1020.32 1020.32 1020.52 1020.56 1020.76 1021.28 1021.68 1021.80 1021.88 1022.40 1022.96 1023.36
1013.68 1013.80 1014.00 1014.16 1014.36 1014.24 1013.84 1013.80 1014.08 1014.48 1014.88 1015.12 1015.28 1015.56 1015.88 1016.16 1016.32 1016.36 1016.36 1016.44 1016.48 1016.48 1016.52 1016.52 1016.60 1016.76 1016.84 1016.88 1017.04 1017.16 1017.24 1017.44 1017.64 1017.84 1018.00 1018.04 1018.20 1018.36 1018.56 1018.72 1018.88 1019.04 1019.16 1019.36 1019.56 1019.84 1020.00 1020.20 1020.24 1020.24 1020.20 1020.24 1020.32 1020.40 1020.56 1020.84 1021.20 1021.36 1021.60 1021.96 1022.16 1022.96
1013.76 1013.60 1013.88 1014.00 1014.32 1014.44 1014.28 1014.08 1014.08 1014.36 1014.72 1014.96 1015.20 1015.36 1015.60 1015.92 1016.08 1016.24 1016.36 1016.48 1016.60 1016.64 1016.60 1016.72 1016.72 1016.76 1016.84 1016.88 1016.96 1017.16 1017.36 1017.52 1017.68 1017.80 1017.92 1018.08 1018.20 1018.32 1018.52 1018.68 1018.84 1019.00 1019.12 1019.32 1019.52 1019.72 1019.88 1019.96 1020.00 1020.08 1020.12 1020.12 1020.20 1020.36 1020.44 1020.64 1020.92 1021.28 1021.52 1021.68 1022.08 1022.92
1014.24 1013.92 1013.96 1014.08 1014.12 1014.32 1014.36 1014.24 1014.20 1014.40 1014.68 1014.92 1015.16 1015.28 1015.44 1015.64 1015.84 1015.96 1016.16 1016.36 1016.44 1016.48 1016.60 1016.64 1016.64 1016.68 1016.72 1016.80 1016.96 1017.08 1017.24 1017.40 1017.52 1017.68 1017.88 1018.04 1018.16 1018.32 1018.44 1018.64 1018.80 1018.96 1019.08 1019.12 1019.32 1019.52 1019.64 1019.76 1019.80 1019.80 1019.88 1020.08 1020.24 1020.28 1020.44 1020.64 1020.92 1021.20 1021.52 1021.88 1022.32 1022.48
1014.44 1014.24 1014.28 1014.20 1014.16 1014.28 1014.36 1014.28 1014.36 1014.44 1014.64 1014.88 1015.12 1015.24 1015.32 1015.40 1015.64 1015.84 1015.96 1016.12 1016.28 1016.28 1016.48 1016.56 1016.56 1016.64 1016.72 1016.84 1017.00 1017.16 1017.24 1017.36 1017.56 1017.68 1017.88 1018.04 1018.16 1018.32 1018.44 1018.60 1018.76 1018.88 1019.00 1019.12 1019.24 1019.36 1019.56 1019.68 1019.76 1019.84 1019.88 1019.92 1020.08 1020.28 1020.40 1020.60 1020.76 1021.04 1021.20 1021.44 1021.68 1022.12
1014.56 1014.48 1014.20 1014.20 1014.20 1014.36 1014.44 1014.40 1014.40 1014.60 1014.80 1014.92 1015.00 1015.12 1015.24 1015.36 1015.52 1015.60 1015.76 1015.92 1016.08 1016.16 1016.28 1016.36 1016.52 1016.64 1016.76 1016.84 1017.04 1017.16 1017.24 1017.40 1017.52 1017.68 1017.84 1017.96 1018.16 1018.32 1018.48 1018.64 1018.84 1018.92 1019.04 1019.08 1019.24 1019.32 1019.44 1019.60 1019.64 1019.72 1019.76 1019.92 1020.04 1020.16 1020.36 1020.52 1020.64 1020.84 1021.04 1021.16 1021.44 1021.72
1014.28 1014.28 1014.40 1014.24 1013.88 1013.92 1014.12 1014.20 1014.24 1014.28 1014.60 1014.96 1015.16 1015.20 1015.24 1015.28 1015.36 1015.48 1015.64 1015.80 1015.88 1016.00 1016.12 1016.24 1016.48 1016.56 1016.84 1016.84 1016.96 1017.12 1017.36 1017.48 1017.60 1017.72 1017.88 1018.00 1018.12 1018.28 1018.40 1018.60 1018.76 1018.92 1019.04 1019.08 1019.16 1019.28 1019.44 1019.52 1019.56 1019.64 1019.72 1019.84 1019.96 1020.08 1020.28 1020.48 1020.64 1020.76 1020.88 1021.16 1021.32 1021.52
Wind_Speed
8 8 8 7 7 7 10 14 12 13 14 15 14 14 13 13 13 13 12 12 11 7 7 7 8 6 12 7 8 11 10 9 8 7 8 8 8 8 7 6 5 4 3 3 3 3 5 8 7 7 12 13 13 7 5 5 6 5 4 5 5 6
8 9 8 7 6 6 8 11 8 8 8 10 12 13 11 8 9 6 12 9 6 6 6 6 7 8 6 7 7 11 10 9 7 7 7 7 7 7 6 5 4 4 2 2 2 2 5 6 8 10 14 14 7 6 5 5 5 5 4 4 4 8
8 9 9 7 6 6 7 6 7 7 7 9 10 9 7 8 6 7 6 6 6 5 6 6 6 7 6 10 8 11 11 9 8 7 7 7 6 6 6 4 2 2 2 2 2 3 5 4 5 11 12 8 6 5 5 4 4 4 4 3 3 11
9 8 8 7 6 7 7 6 6 6 6 6 7 7 8 8 8 7 7 6 6 5 5 5 10 15 11 6 7 10 11 9 8 6 6 4 5 5 5 4 2 1 2 3 2 2 3 5 5 5 6 6 6 6 5 4 4 4 5 4 4 12
8 8 8 7 7 7 7 6 6 6 6 6 6 6 6 6 6 8 6 6 6 5 5 6 5 5 5 5 4 4 5 4 3 3 4 3 2 1 3 2 0 0 0 1 1 1 2 4 3 6 6 6 6 6 5 5 4 4 4 5 5 11
8 7 8 7 7 7 8 6 6 6 6 5 6 6 6 6 6 7 6 6 6 6 6 5 5 6 5 5 5 5 5 4 3 3 2 3 2 1 2 3 2 2 1 1 1 0 0 3 2 4 6 5 5 5 5 5 4 4 4 5 6 12
9 8 8 7 7 7 6 6 6 6 6 6 5 6 6 6 6 6 6 7 7 6 6 6 6 6 6 5 5 5 5 4 4 4 3 4 2 1 2 2 2 2 1 1 2 1 2 2 3 3 5 5 5 5 5 5 4 4 4 4 6 12
10 10 8 8 7 7 6 6 7 7 6 5 5 5 6 5 6 6 6 6 7 7 7 7 6 7 6 4 5 4 4 4 3 3 3 3 3 1 2 1 1 0 1 2 1 1 3 2 3 2 6 5 5 5 5 5 4 3 4 5 4 9
9 9 8 8 7 6 6 6 6 6 6 5 5 5 6 6 6 6 5 6 6 7 6 6 6 6 6 5 4 4 5 4 3 3 3 2 3 2 2 2 1 1 2 0 3 4 3 2 4 4 6 5 5 5 5 4 4 4 3 4 4 7
9 9 9 8 7 7 7 7 6 6 5 5 4 4 5 6 5 6 5 5 6 7 7 7 6 6 6 5 5 3 3 4 3 2 2 3 2 2 2 2 0 2 3 3 4 3 4 3 6 5 5 6 5 5 5 5 4 5 3 3 4 5
10 9 8 8 7 7 6 6 6 6 6 6 5 5 5 5 5 5 5 5 5 6 7 6 7 7 6 5 4 4 4 3 4 5 4 2 2 3 1 1 2 5 4 4 4 2 2 4 5 5 4 6 5 5 5 5 4 3 3 4 3 3
10 9 9 9 8 7 6 5 4 5 5 6 5 5 5 5 5 4 4 5 4 4 5 6 7 6 7 5 5 5 4 4 4 4 4 4 4 3 5 4 5 4 3 4 4 4 4 5 4 4 4 5 5 5 4 4 4 4 4 4 3 4
8 8 9 9 8 6 6 5 5 4 5 6 5 5 6 5 5 5 5 5 5 4 4 6 6 7 6 6 6 5 5 5 4 4 4 3 5 9 3 2 5 2 4 4 4 5 5 4 4 4 4 4 5 5 4 5 4 4 4 3 3 3
4 8 8 7 6 6 6 5 4 4 4 5 5 5 5 5 5 5 5 5 6 5 5 5 6 6 6 6 5 5 6 5 4 4 5 6 10 8 3 2 5 1 4 4 5 4 5 5 4 4 5 5 5 4 5 5 4 4 4 3 3 3
6 5 6 6 6 5 4 4 5 4 5 5 5 5 5 5 6 6 5 5 5 5 5 5 5 6 6 6 5 5 5 4 4 5 5 6 10 8 5 4 5 3 2 3 4 3 4 5 4 4 4 5 5 5 5 5 4 4 4 3 4 3
3 2 3 5 4 2 4 4 5 6 6 5 5 5 4 5 5 6 5 5 5 5 5 5 5 6 6 6 5 5 4 4 5 5 6 6 8 9 6 3 3 4 5 3 4 4 4 5 4 4 5 5 4 5 5 5 4 4 4 4 3 3
5 6 8 7 6 1 2 6 6 6 7 6 5 5 4 4 5 6 5 5 5 5 5 5 5 5 6 5 5 5 4 5 5 5 4 6 7 6 6 5 4 3 5 5 5 5 4 5 4 4 4 5 5 5 5 4 4 4 4 5 3 3
5 8 8 8 7 7 7 5 3 4 4 5 6 5 5 5 5 5 5 5 6 5 5 5 5 6 6 5 5 5 5 5 5 5 4 5 6 5 4 5 6 3 2 6 5 5 5 5 4 4 5 5 5 4 4 4 4 4 5 4 3 3
7 7 9 7 8 10 7 3 2 3 3 4 5 5 6 5 5 5 5 6 6 5 5 5 5 6 7 6 5 5 5 4 5 5 5 5 6 5 5 3 5 4 0 2 6 4 5 5 5 4 5 5 5 5 4 4 4 4 4 3 3 3
7 4 8 7 8 7 4 5 5 3 3 3 4 5 5 5 5 5 5 6 5 5 5 5 5 5 6 6 6 5 5 5 5 4 5 6 5 6 7 4 2 5 5 3 2 4 5 7 6 6 6 5 5 5 4 3 4 2 3 4 3 3
11 8 10 9 8 7 5 6 5 6 5 4 4 4 5 4 5 5 5 5 5 5 5 5 5 6 6 6 5 6 5 3 4 4 4 5 5 7 7 8 5 3 9 6 2 3 4 7 8 5 5 6 6 5 5 4 4 5 3 3 3 3
7 11 9 10 6 8 7 8 8 7 5 5 5 6 6 5 5 4 3 4 4 4 4 5 5 4 5 5 5 5 5 5 5 4 4 3 4 5 7 8 7 4 2 8 5 5 6 8 3 5 6 4 5 5 5 5 5 5 3 3 2 3
5 3 11 8 8 7 6 4 5 6 7 5 2 1 2 2 2 3 2 3 3 4 4 4 4 4 5 5 5 5 5 5 5 5 4 3 5 6 7 8 7 8 5 1 3 4 7 1 6 4 4 5 3 3 2 3 4 4 3 3 2 3
16 19 12 8 8 7 5 3 2 3 4 3 3 3 3 3 3 3 3 2 2 3 4 4 4 4 4 5 6 5 5 5 5 4 5 5 6 8 7 5 4 7 8 7 3 4 5 2 6 10 4 1 2 2 3 2 2 3 2 2 3 4
16 18 17 18 18 12 8 6 5 5 4 4 4 4 4 3 3 3 3 3 4 3 4 4 4 4 4 5 5 5 6 5 4 5 4 4 6 9 9 8 9 8 8 9 8 4 5 2 5 1 7 6 2 0 1 3 4 2 1 2 2 4
14 14 16 17 18 17 15 12 10 9 9 6 6 7 8 8 6 6 6 3 2 3 3 3 4 4 4 4 4 5 5 4 5 4 4 5 6 5 7 7 9 9 7 6 9 7 4 3 7 5 3 3 6 6 6 4 3 3 1 2 2 3
14 14 14 12 8 9 10 10 12 11 10 10 9 6 5 6 6 5 4 5 4 3 3 4 4 4 4 4 3 4 4 4 5 4 4 6 6 7 6 6 7 7 8 7 6 8 6 7 4 4 4 2 2 2 9 9 3 4 4 1 2 2
8 12 13 12 11 9 9 9 10 10 9 9 9 9 8 6 5 5 5 5 4 4 4 3 4 4 3 3 4 4 4 3 4 5 5 6 6 4 4 4 7 7 7 7 8 8 7 8 8 4 0 1 3 5 8 3 4 6 7 6 4 2
8 9 10 15 14 12 11 12 11 9 9 7 6 6 6 5 6 5 5 4 4 5 4 4 4 4 4 4 4 4 4 4 4 5 5 5 4 4 4 5 6 6 7 6 6 6 7 9 6 5 3 3 6 6 3 3 5 3 6 6 4 4
9 7 5 9 13 14 10 7 7 6 7 5 4 4 4 6 5 5 6 5 5 5 5 5 4 4 5 6 5 4 5 5 5 5 4 4 4 4 4 5 6 6 6 6 4 6 7 7 5 4 4 6 6 4 4 3 2 4 4 2 6 7
3 7 9 8 3 5 5 4 2 1 2 4 4 6 5 4 4 3 5 5 4 5 4 5 5 5 7 6 5 6 6 5 5 4 4 4 6 6 6 6 5 5 5 6 5 5 4 4 5 5 4 7 8 9 8 7 8 6 5 5 6 5
3 3 4 2 2 1 3 6 5 4 3 3 5 6 7 7 6 6 4 5 4 3 3 4 5 6 6 6 6 6 5 4 5 5 5 5 4 6 6 5 5 5 5 4 4 5 5 6 5 5 5 5 6 4 4 6 7 7 7 7 9 8
4 5 4 4 2 1 1 4 5 6 4 4 4 5 6 6 5 6 5 4 4 5 4 4 6 7 6 6 6 5 5 6 5 5 5 4 4 5 6 6 6 5 5 6 6 6 6 6 7 6 6 4 5 4 4 5 6 6 4 6 8 8
6 5 4 3 4 4 3 4 4 5 5 4 5 5 5 6 6 5 5 5 5 5 6 6 6 6 6 5 5 5 5 6 6 6 5 5 5 5 5 6 6 6 5 5 5 5 6 5 5 5 5 5 4 5 3 6 6 6 7 7 7 9
4 4 2 3 5 5 5 4 4 4 5 5 5 5 5 6 6 6 5 6 5 5 6 5 6 4 4 5 5 5 5 6 6 6 5 5 5 5 5 5 5 5 5 4 5 6 5 5 5 4 4 5 5 3 5 6 7 7 7 8 8 8
3 1 4 4 5 6 5 5 5 5 5 5 5 5 5 4 4 4 5 6 6 5 5 6 4 5 4 6 6 5 5 5 5 5 5 6 5 5 5 6 4 4 5 3 5 5 5 5 5 4 4 3 3 4 5 6 6 7 7 7 7 7
4 2 2 1 8 9 10 9 8 9 8 6 5 6 6 6 6 4 4 5 6 6 5 6 6 5 5 5 6 5 5 5 5 5 5 5 5 5 5 6 5 4 5 4 5 5 4 5 4 4 3 4 4 4 4 4 5 6 7 6 6 7
Wind_Direction
146 141 137 135 135 138 148 146 143 145 146 145 145 146 143 139 137 139 138 134 126 123 125 129 129 133 132 127 133 132 128 131 123 125 117 116 115 113 111 103 102 98 81 65 33 16 17 41 34 76 105 106 103 97 110 113 115 115 107 112 114 114
143 142 142 140 141 147 153 149 148 150 150 152 152 151 146 142 141 133 135 129 124 126 125 128 135 130 129 134 136 136 136 133 134 129 122 118 117 114 115 110 109 112 109 84 32 27 33 34 48 82 115 113 107 111 113 114 117 116 115 118 128 122
147 147 142 138 145 151 146 148 149 148 151 154 156 148 144 146 138 136 131 131 129 128 131 132 127 136 136 144 147 147 142 141 141 136 125 119 117 119 116 120 109 101 96 59 34 33 48 62 62 77 101 106 107 102 100 104 107 107 105 107 104 122
151 147 141 146 149 150 151 153 152 148 145 147 149 151 153 152 147 143 138 132 133 137 130 133 150 147 145 146 154 148 149 148 148 142 131 116 117 126 124 127 152 90 43 30 12 51 71 80 81 79 78 87 98 108 110 116 121 120 124 124 127 127
148 148 148 154 153 155 156 153 151 147 148 151 152 151 146 146 143 137 135 138 140 137 134 136 136 129 134 144 139 141 143 140 135 130 120 107 94 91 100 111 109 95 37 9 335 25 97 99 81 87 84 103 111 113 117 127 135 134 133 120 119 127
148 153 157 158 158 157 156 157 151 148 147 149 149 144 144 139 138 144 142 144 137 135 136 135 135 143 144 141 144 148 153 152 149 157 129 122 130 121 163 162 167 215 235 195 260 34 198 136 128 100 101 90 107 116 127 134 130 126 120 122 130 136
155 158 160 159 157 160 164 154 146 150 152 159 145 137 142 142 145 151 146 143 140 142 140 142 141 141 143 146 153 161 160 160 166 162 157 145 151 187 208 203 186 229 307 254 222 204 190 169 102 94 88 100 104 117 124 124 120 120 126 128 131 133
161 160 161 160 158 162 158 152 158 161 156 152 134 138 144 149 146 148 148 147 145 145 146 148 145 140 148 152 165 163 165 163 166 170 165 152 159 186 231 242 230 316 260 295 32 180 152 78 77 109 107 118 119 126 129 129 134 130 127 119 123 134
158 154 153 154 160 162 156 156 163 156 153 156 145 147 145 143 145 146 149 150 149 146 145 150 148 145 139 159 163 173 172 177 172 164 155 161 155 187 231 239 237 252 39 56 161 152 130 116 135 96 114 125 130 132 128 125 129 121 111 108 121 140
159 158 157 156 161 162 163 160 157 154 153 141 139 138 136 139 139 139 148 158 158 150 149 150 147 150 149 161 166 171 183 171 176 155 151 168 180 165 237 268 310 50 102 78 100 121 116 140 95 104 112 121 129 134 133 137 128 122 117 113 122 132
161 159 155 157 163 164 152 157 153 149 150 142 141 132 126 123 124 132 149 156 161 153 144 143 144 152 158 152 148 153 175 156 165 167 163 200 165 185 169 315 111 106 116 105 90 92 116 96 78 90 111 114 122 123 127 122 113 109 108 110 111 115
161 158 159 159 162 156 152 151 145 144 150 139 143 144 135 127 130 136 148 156 160 154 146 139 141 146 150 147 144 144 151 139 137 110 132 167 181 86 86 117 106 111 113 116 110 93 65 72 78 81 107 104 108 119 126 122 118 120 111 100 101 102
165 162 162 162 163 152 147 149 148 154 147 145 153 154 143 142 141 150 160 158 157 152 150 144 145 145 140 142 144 136 130 134 124 110 88 97 83 72 50 294 91 78 105 87 101 82 78 75 92 93 94 92 103 110 116 113 118 114 105 101 94 104
208 172 166 155 148 150 154 149 141 140 142 144 158 156 149 140 147 154 160 160 155 156 152 148 144 139 134 132 132 136 135 124 107 77 77 80 90 113 198 203 78 106 85 93 90 86 102 96 87 105 102 108 102 115 115 112 116 112 103 98 105 97
237 212 165 147 147 145 132 141 146 147 153 159 163 159 151 146 152 156 159 164 157 154 154 153 147 136 133 133 138 135 124 118 106 83 83 83 111 127 178 173 117 124 86 100 104 105 107 103 110 111 114 117 115 110 104 109 108 107 101 98 93 88
222 230 63 52 37 72 145 161 161 163 161 166 163 159 159 156 154 154 161 161 160 154 158 160 148 138 135 141 142 138 133 121 104 99 103 100 111 132 168 152 137 145 134 129 116 97 101 106 113 105 103 103 107 110 113 112 113 101 89 87 79 77
159 76 78 98 118 90 244 177 177 174 171 164 163 159 155 154 157 157 161 161 163 157 163 158 145 142 135 140 136 133 127 119 109 115 120 119 108 132 157 160 131 201 154 142 123 122 103 114 111 99 98 104 104 111 109 114 108 103 99 93 92 88
127 145 141 140 138 156 207 192 172 171 166 163 155 155 156 161 167 158 155 161 167 162 162 151 142 139 130 137 139 130 132 130 125 117 120 122 126 142 150 139 137 193 184 127 138 141 129 120 108 103 93 88 92 90 104 105 97 99 108 113 99 99
131 144 131 137 161 178 179 151 126 149 159 152 148 152 155 161 165 160 164 161 166 164 156 146 143 139 136 139 133 133 138 137 121 124 132 128 125 131 127 119 149 150 113 108 140 144 136 122 107 96 86 82 87 95 93 91 92 106 116 125 129 111
133 153 130 159 172 173 166 147 150 161 169 173 161 157 159 163 164 173 172 165 158 157 156 147 150 143 139 143 144 151 144 135 128 141 148 133 137 128 138 141 176 148 129 94 74 131 130 114 94 87 81 70 75 100 88 83 81 75 119 117 122 119
156 154 152 173 177 167 170 159 168 186 188 181 179 164 162 167 174 180 173 163 156 155 152 143 152 147 148 146 151 145 135 138 136 155 150 150 145 129 137 139 164 200 137 124 121 153 134 124 118 94 77 78 66 68 84 75 62 55 48 89 126 122
156 157 157 153 172 176 199 187 179 179 177 178 174 176 176 176 181 176 164 155 155 150 147 140 149 153 143 141 149 139 148 154 153 157 142 151 128 138 137 143 153 141 165 140 146 171 156 132 108 137 141 113 73 61 67 70 66 68 74 70 91 117
40 27 123 151 172 206 202 197 181 175 177 173 192 160 126 122 146 153 146 138 141 143 144 142 152 157 148 144 146 138 159 155 161 153 132 130 136 124 149 154 163 147 150 68 110 181 175 227 126 111 97 100 127 122 92 70 60 52 79 110 104 103
156 145 158 174 201 196 193 193 166 154 142 131 150 127 105 107 114 126 152 137 140 141 152 154 159 163 154 149 152 154 159 160 168 144 143 160 135 134 159 142 167 155 147 138 156 190 209 206 141 136 131 160 131 47 118 107 99 53 47 109 121 106
165 156 165 176 176 184 192 173 147 119 118 90 85 113 128 136 151 169 150 158 183 162 161 162 166 163 165 163 162 157 165 172 163 151 151 178 152 161 167 166 163 154 164 155 164 171 214 194 183 176 132 123 82 355 225 113 110 54 33 81 85 126
165 165 174 182 180 175 181 173 160 161 163 166 168 170 174 171 163 175 185 159 144 174 171 169 177 174 174 169 167 168 171 169 155 156 168 185 156 155 154 153 162 161 165 173 158 166 183 216 189 202 221 137 160 169 158 148 145 141 55 48 93 104
172 171 172 176 172 170 171 173 174 175 174 176 177 183 169 166 167 171 156 169 170 170 185 178 187 187 181 180 167 176 182 169 158 158 161 150 153 162 161 152 161 160 168 165 156 163 172 179 210 276 225 228 132 115 145 146 170 120 130 109 80 111
206 178 170 166 166 172 172 177 177 179 178 174 179 171 168 163 149 155 157 169 163 180 187 196 188 192 190 179 178 185 176 160 150 155 160 153 156 158 140 137 161 170 161 167 168 165 172 177 183 217 167 91 90 124 137 89 140 157 137 140 142 86
224 204 183 167 166 173 178 180 180 177 178 184 163 154 147 145 156 157 154 165 174 184 185 194 196 189 192 193 187 182 163 159 148 152 160 151 165 144 154 149 153 157 167 172 172 169 161 182 188 186 122 68 110 125 94 95 127 120 143 143 117 151
228 226 230 187 170 175 175 172 176 178 170 144 116 116 137 153 159 160 163 174 183 185 187 188 200 194 194 193 187 173 168 164 157 152 154 161 160 156 169 160 163 170 168 165 167 163 175 177 181 179 166 148 136 117 95 90 90 112 69 54 149 157
259 358 357 335 323 137 119 91 71 91 144 141 131 130 134 137 139 157 171 178 186 195 178 189 191 195 185 179 178 174 167 171 154 154 154 151 163 169 171 171 169 162 166 164 165 169 159 162 169 169 169 163 162 166 165 166 168 166 152 141 125 137
29 33 20 19 341 325 115 116 113 118 142 152 151 149 152 156 166 173 177 177 193 175 180 174 172 167 169 169 168 171 163 153 151 151 169 165 154 157 156 153 155 163 166 161 153 159 162 165 172 174 178 178 167 151 125 144 163 161 154 155 149 151
40 81 63 59 56 31 76 120 124 133 142 151 158 155 151 155 168 171 173 163 168 181 160 155 171 161 171 165 157 153 148 154 158 166 161 150 155 147 149 150 154 158 155 157 165 162 167 178 174 171 188 185 166 165 163 142 146 151 133 131 140 140
62 67 84 82 100 104 109 115 119 127 142 150 160 157 160 160 172 171 161 166 177 174 168 174 164 165 169 153 149 155 149 155 158 156 155 157 151 150 148 150 154 157 169 168 152 160 170 172 175 181 165 163 181 179 158 150 150 141 146 140 149 153
74 75 73 135 104 105 116 123 117 130 144 152 158 162 164 170 168 161 159 164 179 161 163 166 156 157 149 151 151 147 143 141 149 150 147 146 146 144 150 148 153 163 162 163 159 151 160 158 166 170 172 172 171 157 160 160 153 160 158 162 158 161
84 58 136 141 121 121 126 137 138 141 147 149 157 154 159 168 168 164 161 166 169 164 166 144 143 139 159 148 154 150 135 143 148 146 150 149 148 147 150 148 154 152 163 163 156 162 166 162 170 171 171 150 146 178 164 160 162 159 169 166 161 163
78 91 337 263 166 161 167 169 165 154 147 149 158 170 175 179 168 164 159 168 161 170 151 139 146 147 147 148 149 147 137 140 148 152 149 150 150 148 149 150 156 159 158 166 157 169 161 167 179 163 158 164 172 168 168 152 154 164 166 159 163 168